Location: M?digepalle
(16.1753°N, 80.3496°E)
Time: 09:04:09
(UTC+00:00)

Cosmos 1408 - Pass Details

Date: 29 October 2020
Orbit: 470 x 492 km, 82.6° (Epoch: 27 November)

Event Time Altitude Azimuth Distance (km) Brightness Sun altitude
Rises 13:37:49 0° 351° (N) 2,550 6.2 -21.6°
Reaches altitude 10° 13:39:55 10° 348° (NNW) 1,672 5.3 -22.1°
Maximum altitude 13:43:32 63° 266° (W) 551 3.0 -22.9°
Drops below altitude 10° 13:47:10 10° 185° (S) 1,677 5.4 -23.8°
Sets 13:49:17 0° 182° (S) 2,559 6.4 -24.3°
